Location: Passau
(48.5830°N, 13.4830°E)
Time: 05:35:39
(UTC+02:00)

Vanguard 1 - Pass Details

Date: 29 July 2021
Orbit: 652 x 3831 km, 34.3° (Epoch: 16 September)

Event Time Altitude Azimuth Distance (km) Brightness Sun altitude
Rises 16:27:28 0° 260° (W) 4,173 14.1 40.8°
Reaches altitude 10° 16:30:14 10° 249° (WSW) 3,535 14.1 40.3°
Maximum altitude 16:38:07 30° 192° (SSW) 3,133 13.3 39.1°
Drops below altitude 10° 16:50:45 10° 140° (SE) 5,747 13.8 37.1°
Sets 16:56:58 0° 132° (SE) 7,247 14.2 36.1°
